Location: Lango�lan
(48.1202°N, 3.2340°W)
Time: 23:26:30
(UTC+00:00)

Okean O Rocket - Pass Details

Date: 23 October 2019
Orbit: 622 x 645 km, 98.2° (Epoch: 14 November)

Event Time Altitude Azimuth Distance (km) Brightness Sun altitude
Rises 04:43:30 0° 27° (NNE) 2,942 5.5 -20.7°
Reaches altitude 10° 04:46:17 10° 46° (NE) 2,023 4.9 -20.2°
Maximum altitude 04:49:26 19° 92° (E) 1,501 4.5 -19.7°
Drops below altitude 10° 04:52:34 10° 138° (SE) 2,001 4.7 -19.2°
Sets 04:55:17 0° 156° (SSE) 2,898 5.3 -18.7°
